Change the Weather History Date:

Friday, January 25, 2013

  Actual Average Record
Temperature  
Mean Temperature 61 °F 52 °F  
Max Temperature 71 °F 62 °F 83 °F (2015)
Min Temperature 50 °F 42 °F 26 °F (1949)
Degree Days  
Heating Degree Days 4 13  
Month to date heating degree days 375 345  
Since 1 July heating degree days 1263 1398  
Cooling Degree Days 0 0  
Month to date cooling degree days 0 0  
Year to date cooling degree days 0 0  
Growing Degree Days 10 (Base 50)    
Moisture  
Dew Point 52 °F    
Average Humidity 81    
Maximum Humidity 100    
Minimum Humidity 61    
Precipitation  
Precipitation 0.00 in 0.08 in 0.74 in (1969)
Month to date precipitation 1.04 2.07  
Year to date precipitation 1.04 2.07  
Since 1 July precipitation 7.68 6.18  
Sea Level Pressure  
Sea Level Pressure 30.14 in    
Wind  
Wind Speed 3 mph (East)    
Max Wind Speed 14 mph    
Max Gust Speed 16 mph    
Visibility 4 miles    
Events Fog    
T = Trace of Precipitation, MM = Missing Value Source: NWS Daily Summary

Daily Weather History Graph

Daily Weather History Graph

Search for Another Location

Airport or City:

Trip Planner

Search our weather history database for the weather conditions in past years. The results will help you decide how hot, cold, wet, or windy it might be!

Date:

Astronomy

Jan. 25, 2013 Rise Set
Actual Time 7:13 AM PST 5:25 PM PST
Civil Twilight 6:45 AM PST 5:52 PM PST
Nautical Twilight 6:14 AM PST 6:23 PM PST
Astronomical Twilight 5:43 AM PST 6:54 PM PST
Moon 4:27 PM PST (1/25) 5:56 AM PST (1/25)
Length of Visible Light 11h 07m
Length of Day
10h 11m
Waxing Gibbous, 98% of the Moon is Illuminated
Jan 25
Waxing Gibbous
Jan 26
Full
Feb 3
Last Quarter
Feb 9
New
Feb 17
First Quarter

Hourly Weather History & Observations

Time (PST) Temp. Dew Point Humidity Pressure Visibility Wind Dir Wind Speed Gust Speed Precip Events Conditions
12:53 AM 54.0 °F 53.1 °F 97% 30.21 in 4.0 mi NW 3.5 mph - N/A   Overcast
1:26 AM 53.6 °F 53.6 °F 100% 30.18 in 4.0 mi Calm Calm - N/A   Overcast
1:53 AM 53.1 °F 52.0 °F 96% 30.21 in 3.0 mi South 4.6 mph - N/A   Overcast
2:53 AM 53.1 °F 52.0 °F 96% 30.20 in 2.5 mi Calm Calm - N/A   Overcast
3:13 AM 51.8 °F 51.8 °F 100% 30.17 in 1.8 mi Calm Calm - N/A   Overcast
3:21 AM 51.8 °F 51.8 °F 100% 30.17 in 2.0 mi Calm Calm - N/A   Overcast
3:36 AM 51.8 °F 51.8 °F 100% 30.16 in 1.8 mi Calm Calm - N/A   Mostly Cloudy
3:43 AM 51.8 °F 51.8 °F 100% 30.16 in 0.8 mi Calm Calm - N/A   Mostly Cloudy
3:48 AM 51.8 °F 50.0 °F 94% 30.16 in 0.2 mi Calm Calm - N/A Fog Fog
3:53 AM 51.1 °F 50.0 °F 96% 30.19 in 0.2 mi Calm Calm - N/A Fog Fog
4:00 AM 51.8 °F 50.0 °F 94% 30.16 in 0.2 mi ENE 3.5 mph - N/A Fog Fog
4:09 AM 50.0 °F 50.0 °F 100% 30.16 in 0.5 mi East 3.5 mph - N/A Fog Fog
4:19 AM 51.8 °F 50.0 °F 94% 30.16 in 0.8 mi East 4.6 mph - N/A   Overcast
4:40 AM 51.8 °F 51.8 °F 100% 30.16 in 1.0 mi East 3.5 mph - N/A   Overcast
4:53 AM 52.0 °F 51.1 °F 97% 30.19 in 1.5 mi Calm Calm - N/A   Overcast
5:26 AM 51.8 °F 51.8 °F 100% 30.16 in 2.0 mi SE 4.6 mph - N/A   Overcast
5:45 AM 51.8 °F 51.8 °F 100% 30.15 in 1.8 mi East 6.9 mph - N/A   Overcast
5:53 AM 51.1 °F 50.0 °F 96% 30.18 in 1.5 mi East 6.9 mph - N/A   Overcast
6:00 AM 51.8 °F 51.8 °F 100% 30.15 in 1.5 mi East 5.8 mph - N/A   Overcast
6:09 AM 51.8 °F 51.8 °F 100% 30.15 in 0.2 mi East 6.9 mph - N/A Fog Fog
6:18 AM 51.8 °F 51.8 °F 100% 30.14 in 0.5 mi East 6.9 mph - N/A Fog Fog
6:28 AM 51.8 °F 51.8 °F 100% 30.14 in 1.2 mi East 6.9 mph - N/A   Mostly Cloudy
6:43 AM 51.8 °F 51.8 °F 100% 30.14 in 1.5 mi East 4.6 mph - N/A   Scattered Clouds
6:53 AM 51.1 °F 50.0 °F 96% 30.15 in 1.5 mi East 8.1 mph - N/A   Clear
7:07 AM 51.8 °F 51.8 °F 100% 30.13 in 2.5 mi East 6.9 mph - N/A   Clear
7:25 AM 51.8 °F 51.8 °F 100% 30.13 in 1.8 mi East 5.8 mph - N/A   Clear
7:46 AM 51.8 °F 51.8 °F 100% 30.14 in 2.0 mi Calm Calm - N/A   Clear
7:53 AM 51.1 °F 51.1 °F 100% 30.17 in 1.8 mi Calm Calm - N/A   Clear
8:01 AM 51.8 °F 51.8 °F 100% 30.14 in 2.0 mi NW 3.5 mph - N/A   Partly Cloudy
8:23 AM 53.6 °F 51.8 °F 94% 30.14 in 1.8 mi NNE 4.6 mph - N/A   Partly Cloudy
8:32 AM 53.6 °F 51.8 °F 94% 30.14 in 2.5 mi Calm Calm - N/A   Clear
8:41 AM 53.6 °F 53.6 °F 100% 30.14 in 3.0 mi Calm Calm - N/A   Clear
8:53 AM 54.0 °F 53.1 °F 97% 30.17 in 4.0 mi Calm Calm - N/A   Clear
9:53 AM 57.9 °F 55.9 °F 93% 30.18 in 4.0 mi Calm Calm - N/A   Clear
10:10 AM 57.2 °F 55.4 °F 94% 30.15 in 6.0 mi ESE 3.5 mph - N/A   Partly Cloudy
10:53 AM 61.0 °F 57.0 °F 87% 30.17 in 8.0 mi Variable 3.5 mph - N/A   Partly Cloudy
11:53 AM 64.9 °F 55.9 °F 73% 30.13 in 10.0 mi East 3.5 mph - N/A   Clear
12:53 PM 66.9 °F 57.0 °F 70% 30.10 in 10.0 mi Calm Calm - N/A   Clear
1:53 PM 69.1 °F 57.0 °F 65% 30.09 in 10.0 mi East 4.6 mph - N/A   Clear
2:53 PM 70.0 °F 55.9 °F 61% 30.07 in 10.0 mi Calm Calm - N/A   Clear
3:53 PM 64.0 °F 55.0 °F 73% 30.06 in 10.0 mi West 11.5 mph - N/A   Clear
4:53 PM 62.1 °F 54.0 °F 75% 30.06 in 10.0 mi WSW 11.5 mph - N/A   Clear
5:53 PM 60.1 °F 53.1 °F 78% 30.07 in 10.0 mi WNW 4.6 mph - N/A   Mostly Cloudy
6:53 PM 59.0 °F 52.0 °F 78% 30.06 in 10.0 mi NW 4.6 mph - N/A   Partly Cloudy
7:53 PM 57.0 °F 52.0 °F 83% 30.07 in 10.0 mi Calm Calm - N/A   Clear
8:53 PM 53.1 °F 51.1 °F 93% 30.06 in 10.0 mi Calm Calm - N/A   Clear
9:53 PM 52.0 °F 50.0 °F 93% 30.07 in 10.0 mi Calm Calm - N/A   Clear
10:53 PM 53.1 °F 50.0 °F 89% 30.07 in 7.0 mi West 6.9 mph - N/A   Clear
11:53 PM 53.1 °F 51.1 °F 93% 30.07 in 7.0 mi West 3.5 mph - N/A   Clear